DW5212 Weather Reports


time (UTC)temp
F
wind
direction
speed
knots
gust
knots
rain 1hr
in
rain 24hr
in
rain mn
in
humidity
%
barometer
mb
20210920055108 71 355 0.0 0.0 0.00 0.00 0.00 94 1013.1
20210920054414 71 265 0.0 0.0 0.00 0.00 0.00 94 1013.0
20210920053708 71 265 0.0 0.0 0.00 0.00 0.00 94 1013.0
20210920053011 71 265 0.0 0.0 0.00 0.00 0.00 94 1013.1
20210920052308 71 265 0.0 0.0 0.00 0.00 0.00 94 1013.2
20210920051610 71 260 0.0 0.0 0.00 0.00 0.00 94 1013.1
20210920050909 71 260 0.0 0.0 0.00 0.00 0.00 93 1013.1
20210920050210 71 260 0.0 0.0 0.00 0.00 0.00 93 1013.2
20210920045509 71 260 0.0 0.0 0.00 0.00 0.00 93 1013.2
20210920044810 71 260 0.0 0.0 0.00 0.00 0.00 93 1013.1
20210920044110 71 259 0.0 0.0 0.00 0.00 0.00 93 1013.1
20210920043410 71 260 0.0 0.0 0.00 0.00 0.00 93 1013.2
20210920042708 72 260 0.0 0.0 0.00 0.00 0.00 93 1013.2
20210920042014 72 260 0.0 0.0 0.00 0.00 0.00 93 1013.2
20210920041309 72 260 0.0 0.0 0.00 0.00 0.00 93 1013.1
20210920040611 72 260 0.0 0.0 0.00 0.00 0.00 93 1013.2
20210920035908 72 260 0.0 0.0 0.00 0.00 0.00 93 1013.3
20210920035208 72 259 0.0 0.0 0.00 0.00 0.00 93 1013.2
20210920034508 72 260 0.0 0.0 0.00 0.00 0.00 92 1013.2
20210920033810 72 260 0.0 0.0 0.00 0.00 0.00 92 1013.1
20210920033107 72 260 0.0 0.0 0.00 0.00 0.00 92 1013.0
20210920032409 72 260 0.0 0.0 0.00 0.00 0.00 92 1013.2
20210920031708 72 260 0.0 0.0 0.00 0.00 0.00 92 1013.2
20210920031009 73 260 0.0 0.0 0.00 0.00 0.00 92 1013.1
20210920030308 73 260 0.0 0.0 0.00 0.00 0.00 92 1013.2
20210920025611 73 260 0.0 0.0 0.00 0.00 0.00 92 1013.2
20210920024909 73 259 0.0 0.0 0.00 0.00 0.00 92 1012.9
20210920024208 73 260 0.0 0.0 0.00 0.00 0.00 91 1012.9
20210920023507 73 260 0.0 0.0 0.00 0.00 0.00 91 1012.9
20210920022808 73 260 0.0 0.0 0.00 0.00 0.00 91 1012.8
20210920022108 73 260 0.0 0.0 0.00 0.00 0.00 91 1012.7
20210920021407 73 259 0.0 0.0 0.00 0.00 0.00 91 1012.7
20210920020709 74 260 0.0 0.0 0.00 0.00 0.00 91 1012.8
20210920020011 74 259 0.0 0.0 0.00 0.00 0.00 91 1012.7
20210920015309 74 260 0.0 0.0 0.00 0.00 0.00 91 1012.6
20210920014608 74 260 0.0 0.0 0.00 0.00 0.00 91 1012.5
20210920013909 74 260 0.0 0.0 0.00 0.00 0.00 91 1012.4
20210920013210 74 260 0.0 0.0 0.00 0.00 0.00 91 1012.3
20210920012507 74 260 0.0 0.0 0.00 0.00 0.00 91 1012.2
20210920011807 75 259 0.0 0.0 0.00 0.00 0.00 91 1012.0
20210920011110 75 261 0.0 0.0 0.00 0.00 0.00 91 1012.0
20210920010409 75 260 0.0 0.0 0.00 0.00 0.00 91 1012.0
20210920005707 75 259 0.0 0.0 0.00 0.00 0.00 91 1011.9
20210920005010 75 260 0.0 0.0 0.00 0.00 0.00 91 1011.9
20210920004309 75 260 0.0 0.0 0.00 0.00 0.00 91 1011.9
20210920003610 75 259 0.0 0.0 0.00 0.00 0.00 92 1011.8
20210920002908 75 260 0.0 0.0 0.00 0.00 0.00 92 1011.6
20210920002207 75 260 0.0 0.0 0.00 0.00 0.00 92 1011.6
20210920001509 75 260 0.0 0.0 0.00 0.00 0.00 92 1011.5
20210920000813 75 259 0.0 0.0 0.00 0.00 0.00 91 1011.5
20210920000107 76 259 0.0 0.0 0.00 0.00 0.00 91 1011.4
20210919235407 76 260 0.0 0.0 0.00 0.00 0.00 90 1011.5
20210919234707 76 260 0.0 0.0 0.00 0.00 0.00 89 1011.5
20210919234011 76 260 0.0 0.0 0.00 0.00 0.00 88 1011.3
20210919233309 76 261 0.0 0.0 0.00 0.00 0.00 88 1011.2
20210919232608 77 260 0.0 0.9 0.00 0.00 0.00 86 1011.4
20210919231910 77 266 0.0 0.9 0.00 0.00 0.00 87 1011.5
20210919231212 77 266 0.0 0.9 0.00 0.00 0.00 86 1011.4
20210919230509 77 132 0.0 1.7 0.00 0.00 0.00 85 1011.5
20210919225809 78 130 0.0 2.6 0.00 0.00 0.00 83 1011.5
20210919225108 78 152 0.9 2.6 0.00 0.00 0.00 82 1011.5
20210919224411 79 185 0.9 4.3 0.00 0.00 0.00 82 1011.7
20210919223709 78 204 0.0 2.6 0.00 0.00 0.00 83 1011.4
20210919223010 79 123 0.9 4.3 0.00 0.00 0.00 83 1011.4
20210919222308 79 252 1.7 3.5 0.00 0.00 0.00 83 1011.6
20210919221612 79 220 0.0 2.6 0.00 0.00 0.00 84 1011.6
20210919220908 79 263 0.0 3.5 0.00 0.00 0.00 83 1011.6
20210919220210 79 162 1.7 3.5 0.00 0.00 0.00 82 1011.5
20210919215508 79 112 0.0 3.5 0.00 0.00 0.00 82 1011.4
20210919214809 80 198 0.9 2.6 0.00 0.00 0.00 83 1011.5
20210919214108 80 50 0.9 2.6 0.00 0.00 0.00 82 1011.6
20210919213407 80 111 0.9 3.5 0.00 0.00 0.00 82 1011.7
20210919212710 80 173 0.9 5.2 0.00 0.00 0.00 80 1011.6
20210919212008 81 155 1.7 6.1 0.00 0.00 0.00 80 1011.7
20210919211309 82 136 1.7 5.2 0.00 0.00 0.00 81 1012.0
20210919210608 82 136 1.7 4.3 0.00 0.00 0.00 81 1012.0
20210919205909 81 92 0.9 2.6 0.00 0.00 0.00 83 1012.0
20210919205209 82 102 0.0 2.6 0.00 0.00 0.00 81 1012.0
20210919204507 82 174 1.7 4.3 0.00 0.00 0.00 80 1012.0
20210919203809 81 15 0.9 1.7 0.00 0.00 0.00 80 1012.2
20210919203108 82 132 0.0 2.6 0.00 0.00 0.00 79 1012.2
20210919202411 82 92 0.9 2.6 0.00 0.00 0.00 75 1012.3
20210919201708 83 185 0.9 5.2 0.00 0.00 0.00 72 1012.4
20210919201008 85 199 0.9 5.2 0.00 0.00 0.00 70 1012.5
20210919200307 85 126 1.7 3.5 0.00 0.00 0.00 71 1012.3
20210919195610 85 142 0.0 2.6 0.00 0.00 0.00 74 1012.3
20210919194909 84 226 0.9 3.5 0.00 0.00 0.00 72 1012.3
20210919194209 84 28 0.9 6.1 0.00 0.00 0.00 73 1012.4
20210919193517 84 159 1.7 6.1 0.00 0.00 0.00 72 1012.6
20210919192817 85 126 0.9 2.6 0.00 0.00 0.00 74 1012.6
20210919192108 85 106 0.0 4.3 0.00 0.00 0.00 74 1012.7
20210919191408 83 142 0.9 4.3 0.00 0.00 0.00 75 1013.1
20210919190708 85 203 2.6 5.2 0.00 0.00 0.00 72 1013.2
20210919190011 85 69 1.7 2.6 0.00 0.00 0.00 73 1013.3
20210919185307 83 213 0.9 4.3 0.00 0.00 0.00 79 1013.4
20210919184608 82 217 2.6 4.3 0.00 0.00 0.00 79 1013.6
20210919183907 81 122 1.7 2.6 0.00 0.00 0.00 84 1013.6
20210919183210 80 84 0.9 1.7 0.00 0.00 0.00 84 1013.6
20210919182509 81 115 0.0 3.5 0.00 0.00 0.00 84 1013.7
20210919181809 81 210 0.9 3.5 0.00 0.00 0.00 82 1013.7
20210919181107 82 182 0.9 3.5 0.00 0.00 0.00 81 1013.7
20210919180410 82 68 1.7 3.5 0.00 0.00 0.00 79 1013.9
20210919175708 83 184 0.9 2.6 0.00 0.00 0.00 75 1013.8
20210919175008 84 171 0.9 2.6 0.00 0.00 0.00 77 1013.8
20210919174308 83 139 1.7 2.6 0.00 0.00 0.00 76 1014.1
20210919173610 83 94 0.0 3.5 0.00 0.00 0.00 73 1014.2
20210919172909 85 165 2.6 7.0 0.00 0.00 0.00 71 1014.4
20210919172207 85 54 1.7 3.5 0.00 0.00 0.00 76 1014.6
20210919171508 85 128 0.9 3.5 0.00 0.00 0.00 77 1014.6
20210919170811 86 159 0.9 3.5 0.00 0.00 0.00 78 1014.6
20210919170109 84 73 0.9 3.5 0.00 0.00 0.00 77 1014.6
20210919165408 85 339 0.0 2.6 0.00 0.00 0.00 80 1014.8
20210919164708 84 355 0.0 2.6 0.00 0.00 0.00 82 1014.9
20210919164009 82 175 0.9 2.6 0.00 0.00 0.00 82 1015.0
20210919163309 80 196 0.0 0.0 0.00 0.00 0.00 88 1015.1
20210919162608 79 196 0.0 0.0 0.00 0.00 0.00 90 1015.2
20210919161909 79 196 0.0 0.0 0.00 0.00 0.00 89 1015.5
20210919161208 79 259 0.0 0.0 0.00 0.00 0.00 88 1015.5
20210919160507 79 259 0.0 0.0 0.00 0.00 0.00 88 1015.4
20210919155808 80 307 0.0 0.0 0.00 0.00 0.00 85 1015.4
20210919155111 80 277 0.0 0.0 0.00 0.00 0.00 88 1015.5
20210919154427 79 69 0.0 0.0 0.00 0.00 0.00 89 1015.6
20210919153710 79 69 0.0 0.0 0.00 0.00 0.00 87 1015.7
20210919153009 79 105 0.0 0.0 0.00 0.00 0.00 88 1015.6
20210919152307 80 14 0.0 0.0 0.00 0.00 0.00 86 1015.6
20210919151608 81 124 0.0 1.7 0.00 0.00 0.00 86 1015.6
20210919150907 80 61 0.9 1.7 0.00 0.00 0.00 87 1015.6
20210919150208 79 120 0.0 0.9 0.00 0.00 0.00 91 1015.5
20210919145507 78 319 0.0 1.7 0.00 0.00 0.00 92 1015.4
20210919144807 78 210 0.0 0.0 0.00 0.00 0.00 93 1015.4
20210919144106 79 210 0.0 0.9 0.00 0.00 0.00 95 1015.3
20210919143408 77 119 0.0 0.0 0.00 0.00 0.00 95 1015.2
20210919142707 76 181 0.0 0.0 0.00 0.00 0.00 96 1015.2
20210919142008 76 67 0.0 0.0 0.00 0.00 0.00 97 1015.1
20210919141308 76 67 0.0 0.0 0.00 0.00 0.00 97 1015.2
20210919140607 75 67 0.0 0.9 0.00 0.00 0.00 97 1015.3
20210919135910 75 57 0.9 1.7 0.00 0.00 0.00 97 1015.1
20210919135208 75 57 0.9 2.6 0.00 0.00 0.00 97 1015.2
20210919134508 75 101 0.0 0.0 0.00 0.00 0.00 97 1015.0
20210919133808 75 138 0.0 0.0 0.00 0.00 0.00 97 1015.0
20210919133109 75 138 0.0 0.0 0.00 0.00 0.00 97 1015.2
20210919132407 74 139 0.0 0.0 0.00 0.00 0.00 97 1015.0
20210919131707 74 139 0.0 0.0 0.00 0.00 0.00 97 1014.9
20210919131009 73 138 0.0 0.0 0.00 0.00 0.00 97 1014.9
20210919130308 73 138 0.0 0.0 0.00 0.00 0.00 97 1014.9
20210919125609 73 138 0.0 0.0 0.00 0.00 0.00 97 1014.9
20210919124909 72 152 0.0 0.0 0.00 0.00 0.00 97 1014.9
20210919124207 72 152 0.0 0.0 0.00 0.00 0.00 97 1014.9
20210919123507 72 153 0.0 0.0 0.00 0.00 0.00 97 1014.6
20210919122809 72 152 0.0 0.0 0.00 0.00 0.00 97 1014.6
20210919122107 72 152 0.0 0.0 0.00 0.00 0.00 96 1014.5
20210919121416 72 152 0.0 0.0 0.00 0.00 0.00 96 1014.4
20210919120707 72 153 0.0 0.0 0.00 0.00 0.00 96 1014.4
20210919120017 72 152 0.0 0.0 0.00 0.00 0.00 95 1014.4
20210919115308 71 152 0.0 0.0 0.00 0.00 0.00 95 1014.2
20210919114606 71 152 0.0 0.0 0.00 0.00 0.00 95 1014.3
20210919113907 71 152 0.0 0.0 0.00 0.00 0.00 95 1014.1
20210919113208 71 90 0.0 0.0 0.00 0.00 0.00 95 1014.3
20210919112507 71 90 0.0 0.0 0.00 0.00 0.00 95 1014.3
20210919111807 72 90 0.0 0.0 0.00 0.00 0.00 95 1014.1
20210919111107 72 90 0.0 0.0 0.00 0.00 0.00 95 1014.1
20210919110409 72 90 0.0 0.0 0.00 0.00 0.00 95 1014.1
20210919105709 72 90 0.0 0.0 0.00 0.00 0.00 95 1014.1
20210919105008 72 90 0.0 0.0 0.00 0.00 0.00 95 1014.0
20210919104309 72 90 0.0 0.0 0.00 0.00 0.00 95 1014.1
20210919103608 72 90 0.0 0.0 0.00 0.00 0.00 95 1014.1
20210919102906 72 90 0.0 0.0 0.00 0.00 0.00 95 1014.1
20210919102206 72 90 0.0 0.0 0.00 0.00 0.00 95 1014.1
20210919101507 72 91 0.0 0.0 0.00 0.00 0.00 95 1014.1
20210919100809 72 90 0.0 0.0 0.00 0.00 0.00 95 1014.0
20210919100106 72 90 0.0 0.0 0.00 0.00 0.00 95 1014.0
20210919095408 72 90 0.0 0.0 0.00 0.00 0.00 94 1014.1
20210919094706 72 123 0.0 0.0 0.00 0.00 0.00 94 1014.2
20210919094010 73 122 0.0 0.0 0.00 0.00 0.00 94 1014.0
20210919093306 73 122 0.0 0.0 0.00 0.00 0.00 95 1014.0
20210919092608 73 123 0.0 0.0 0.00 0.00 0.00 94 1014.0
20210919091907 73 122 0.0 0.0 0.00 0.00 0.00 94 1014.0
20210919091212 73 122 0.0 0.0 0.00 0.00 0.00 94 1013.8
20210919090507 73 122 0.0 0.0 0.00 0.00 0.00 94 1013.8
20210919085807 73 122 0.0 0.0 0.00 0.00 0.00 94 1013.7
20210919085108 73 123 0.0 0.0 0.00 0.00 0.00 94 1014.0
20210919084409 73 123 0.0 0.0 0.00 0.00 0.00 94 1014.0
20210919083707 73 122 0.0 0.0 0.00 0.00 0.00 94 1013.9
20210919083009 74 123 0.0 0.0 0.00 0.00 0.00 94 1014.0
20210919082307 74 123 0.0 0.0 0.00 0.00 0.00 94 1014.0
20210919081611 74 122 0.0 0.0 0.00 0.00 0.00 94 1014.0
20210919080907 74 123 0.0 0.0 0.00 0.00 0.00 94 1014.2
20210919080207 74 122 0.0 0.0 0.00 0.00 0.00 94 1014.2
20210919075509 74 123 0.0 0.0 0.00 0.00 0.00 94 1014.3
20210919074809 74 123 0.0 0.0 0.00 0.00 0.00 94 1014.4
20210919074108 74 123 0.0 0.0 0.00 0.00 0.00 94 1014.4
20210919073409 74 122 0.0 0.0 0.00 0.00 0.00 94 1014.3
20210919072709 74 122 0.0 0.0 0.00 0.00 0.00 94 1014.4
20210919072011 74 117 0.0 0.0 0.00 0.00 0.00 94 1014.3
20210919071311 74 116 0.0 0.0 0.00 0.00 0.00 94 1014.2
20210919070610 74 118 0.0 0.0 0.00 0.00 0.00 94 1014.4
20210919065909 74 117 0.0 0.0 0.00 0.00 0.00 94 1014.4
20210919065209 75 59 0.0 0.9 0.00 0.00 0.00 94 1014.4
20210919064510 75 59 0.0 0.9 0.00 0.00 0.00 94 1014.6
20210919063809 75 66 0.0 0.0 0.00 0.00 0.00 94 1014.6
20210919063108 75 65 0.0 0.0 0.00 0.00 0.00 94 1014.5
20210919062410 75 66 0.0 0.0 0.00 0.00 0.00 94 1014.6
20210919061709 75 66 0.0 0.0 0.00 0.00 0.00 94 1014.5
20210919061011 75 66 0.0 0.0 0.00 0.00 0.00 94 1014.6
20210919060309 75 66 0.0 0.0 0.00 0.00 0.00 94 1014.6
20210919055611 75 66 0.0 0.0 0.00 0.00 0.00 94 1014.6